• In Hungary
  • List of Countries
  • For 7 days
  • Water Temperature
  • Satellite Maps
  • Weather Map
  • News
  • Weather Widgets
  • user-avatar
    Login

    Hourly Weather Buhlaky

    Today, 24 January, Wednesday

    Time Temperature Precipitation Wind Pressure Humidity
    00:00 -11°C° 0 mm 1 mps 757 mmHg 88%
    01:00 -11°C° 0 mm 1 mps 757 mmHg 87%
    02:00 -12°C° 0 mm 1 mps 758 mmHg 85%
    03:00 -12°C° 0 mm 1 mps 758 mmHg 85%
    04:00 -12°C° 0 mm 1 mps 758 mmHg 84%
    05:00 -12°C° 0 mm 1 mps 758 mmHg 84%
    06:00 -12°C° 0 mm 1 mps 758 mmHg 83%
    07:00 -12°C° 0 mm 1 mps 758 mmHg 83%
    08:00 -14°C° 0 mm 2 mps 758 mmHg 82%
    09:00 -13°C° 0 mm 2 mps 758 mmHg 81%
    10:00 -10°C° 0 mm 2 mps 758 mmHg 79%
    11:00 -9°C° 0 mm 2 mps 758 mmHg 78%
    12:00 -9°C° 0 mm 3 mps 758 mmHg 78%
    13:00 -8°C° 0 mm 3 mps 758 mmHg 78%
    14:00 -8°C° 0 mm 3 mps 758 mmHg 78%
    15:00 -8°C° 0 mm 3 mps 758 mmHg 80%
    16:00 -9°C° 0 mm 3 mps 757 mmHg 81%
    17:00 -9°C° 0 mm 3 mps 757 mmHg 83%
    18:00 -9°C° 0 mm 3 mps 757 mmHg 82%
    19:00 -10°C° 0 mm 4 mps 757 mmHg 81%
    20:00 -9°C° 0 mm 4 mps 757 mmHg 81%
    21:00 -9°C° 0 mm 4 mps 757 mmHg 81%
    22:00 -10°C° 0 mm 4 mps 756 mmHg 80%
    23:00 -10°C° 0 mm 4 mps 756 mmHg 80%

    Tomorrow, 25 January, Thursday

    Time Temperature Precipitation Wind Pressure Humidity
    00:00 -10°C° 0 mm 4 mps 756 mmHg 81%
    01:00 -11°C° 0 mm 4 mps 756 mmHg 81%
    02:00 -11°C° 0 mm 4 mps 756 mmHg 82%
    03:00 -11°C° 0 mm 4 mps 756 mmHg 82%
    04:00 -11°C° 0 mm 4 mps 756 mmHg 82%
    05:00 -11°C° 0 mm 4 mps 756 mmHg 82%
    06:00 -11°C° 0 mm 4 mps 756 mmHg 82%
    07:00 -11°C° 0 mm 4 mps 756 mmHg 82%
    08:00 -10°C° 0 mm 4 mps 755 mmHg 82%
    09:00 -9°C° 0 mm 4 mps 755 mmHg 81%
    10:00 -8°C° 0 mm 4 mps 756 mmHg 80%
    11:00 -7°C° 0 mm 5 mps 756 mmHg 80%
    12:00 -7°C° 0 mm 5 mps 755 mmHg 79%
    13:00 -5°C° 0 mm 4 mps 755 mmHg 79%
    14:00 -5°C° 0 mm 4 mps 755 mmHg 79%
    15:00 -5°C° 0 mm 4 mps 755 mmHg 80%
    16:00 -7°C° 0 mm 4 mps 755 mmHg 82%
    17:00 -8°C° 0 mm 4 mps 755 mmHg 83%
    18:00 -8°C° 0 mm 4 mps 755 mmHg 83%
    19:00 -9°C° 0 mm 4 mps 755 mmHg 83%
    20:00 -9°C° 0 mm 4 mps 755 mmHg 83%
    21:00 -9°C° 0 mm 4 mps 755 mmHg 82%
    22:00 -9°C° 0 mm 4 mps 755 mmHg 81%
    23:00 -10°C° 0 mm 4 mps 755 mmHg 81%

    Day after tomorrow, 26 January, Friday

    Time Temperature Precipitation Wind Pressure Humidity
    00:00 -10°C° 0 mm 4 mps 755 mmHg 80%
    01:00 -10°C° 0 mm 4 mps 755 mmHg 79%
    02:00 -10°C° 0 mm 4 mps 755 mmHg 78%
    03:00 -10°C° 0 mm 4 mps 755 mmHg 79%
    04:00 -10°C° 0 mm 4 mps 755 mmHg 79%
    05:00 -11°C° 0 mm 4 mps 755 mmHg 79%
    06:00 -11°C° 0 mm 4 mps 755 mmHg 79%
    07:00 -11°C° 0 mm 4 mps 755 mmHg 79%
    08:00 -11°C° 0 mm 4 mps 755 mmHg 78%
    09:00 -11°C° 0 mm 5 mps 755 mmHg 76%
    10:00 -10°C° 0 mm 5 mps 755 mmHg 74%
    11:00 -10°C° 0 mm 5 mps 756 mmHg 73%
    12:00 -8°C° 0 mm 5 mps 755 mmHg 73%
    13:00 -8°C° 0 mm 5 mps 755 mmHg 73%
    14:00 -7°C° 0 mm 5 mps 755 mmHg 73%
    15:00 -8°C° 0 mm 5 mps 755 mmHg 76%
    16:00 -9°C° 0 mm 4 mps 755 mmHg 79%
    17:00 -10°C° 0 mm 4 mps 755 mmHg 82%
    18:00 -11°C° 0 mm 4 mps 755 mmHg 84%
    19:00 -11°C° 0 mm 4 mps 755 mmHg 86%
    20:00 -13°C° 0 mm 5 mps 756 mmHg 87%
    21:00 -13°C° 0 mm 5 mps 756 mmHg 89%
    22:00 -13°C° 0 mm 5 mps 756 mmHg 90%
    23:00 -12°C° 0 mm 4 mps 756 mmHg 92%

    27 January, Saturday

    Time Temperature Precipitation Wind Pressure Humidity
    00:00 -12°C° 0 mm 4 mps 756 mmHg 92%
    01:00 -12°C° 0 mm 4 mps 756 mmHg 93%
    02:00 -12°C° 0 mm 4 mps 756 mmHg 93%
    03:00 -12°C° 0 mm 4 mps 756 mmHg 93%
    04:00 -11°C° 0 mm 4 mps 756 mmHg 93%
    05:00 -11°C° 0 mm 4 mps 756 mmHg 93%
    06:00 -10°C° 0 mm 4 mps 756 mmHg 93%
    07:00 -10°C° 0 mm 4 mps 757 mmHg 93%
    08:00 -9°C° 0 mm 4 mps 757 mmHg 92%
    09:00 -8°C° 0 mm 5 mps 757 mmHg 91%
    10:00 -7°C° 0 mm 5 mps 757 mmHg 90%
    11:00 -7°C° 0 mm 5 mps 758 mmHg 89%
    12:00 -6°C° 0 mm 5 mps 758 mmHg 89%
    13:00 -6°C° 0 mm 5 mps 758 mmHg 88%
    14:00 -5°C° 0 mm 5 mps 758 mmHg 88%
    15:00 -5°C° 0 mm 4 mps 758 mmHg 88%
    16:00 -5°C° 0 mm 4 mps 758 mmHg 89%
    17:00 -5°C° 0 mm 4 mps 758 mmHg 90%
    18:00 -5°C° 0 mm 4 mps 758 mmHg 90%
    19:00 -5°C° 0 mm 4 mps 758 mmHg 91%
    20:00 -5°C° 0 mm 4 mps 758 mmHg 91%
    21:00 -6°C° 0 mm 3 mps 758 mmHg 92%
    22:00 -6°C° 0 mm 3 mps 759 mmHg 92%
    23:00 -6°C° 0 mm 3 mps 759 mmHg 92%

    28 January, Sunday

    Time Temperature Precipitation Wind Pressure Humidity
    00:00 -6°C° 0 mm 3 mps 759 mmHg 92%
    01:00 -6°C° 0 mm 3 mps 759 mmHg 93%
    02:00 -6°C° 0 mm 3 mps 758 mmHg 93%
    03:00 -6°C° 0 mm 3 mps 758 mmHg 93%
    04:00 -6°C° 0 mm 3 mps 758 mmHg 93%
    05:00 -6°C° 0 mm 3 mps 758 mmHg 93%
    06:00 -6°C° 0 mm 3 mps 758 mmHg 93%
    07:00 -6°C° 0 mm 3 mps 758 mmHg 93%
    08:00 -6°C° 0 mm 3 mps 758 mmHg 94%
    09:00 -5°C° 0 mm 3 mps 758 mmHg 93%
    10:00 -4°C° 0 mm 3 mps 758 mmHg 93%
    11:00 -4°C° 0 mm 3 mps 758 mmHg 92%
    12:00 -2°C° 0 mm 3 mps 757 mmHg 93%
    13:00 -2°C° 0 mm 3 mps 757 mmHg 93%
    14:00 -1°C° 0 mm 3 mps 756 mmHg 93%
    15:00 -1°C° 0 mm 3 mps 756 mmHg 94%
    16:00 -1°C° 0 mm 3 mps 756 mmHg 95%
    17:00 -1°C° 0 mm 3 mps 755 mmHg 95%
    18:00 -1°C° 0 mm 3 mps 755 mmHg 95%
    19:00 -1°C° 0 mm 3 mps 754 mmHg 95%
    20:00 -2°C° 0 mm 4 mps 754 mmHg 95%
    21:00 -2°C° 0 mm 4 mps 753 mmHg 94%
    22:00 -2°C° 0 mm 5 mps 753 mmHg 94%
    23:00 -2°C° 0 mm 5 mps 752 mmHg 93%

    29 January, Monday

    Time Temperature Precipitation Wind Pressure Humidity
    00:00 -2°C° 0.2 mm 6 mps 752 mmHg 92%
    01:00 -2°C° 0.2 mm 6 mps 751 mmHg 92%
    02:00 -2°C° 0.2 mm 7 mps 750 mmHg 91%
    03:00 -2°C° 0.1 mm 6 mps 750 mmHg 91%
    04:00 -1°C° 0.1 mm 6 mps 750 mmHg 92%
    05:00 -1°C° 0.1 mm 6 mps 749 mmHg 92%
    06:00 -1°C° 0 mm 6 mps 749 mmHg 92%
    07:00 -1°C° 0 mm 6 mps 749 mmHg 92%
    08:00 -1°C° 0 mm 6 mps 749 mmHg 92%
    09:00 -1°C° 0.1 mm 6 mps 749 mmHg 92%
    10:00 -1°C° 0.1 mm 6 mps 749 mmHg 92%
    11:00 -1°C° 0.1 mm 6 mps 750 mmHg 93%
    12:00 0°C° 0 mm 5 mps 749 mmHg 93%
    13:00 0°C° 0 mm 5 mps 749 mmHg 92%
    14:00 0°C° 0 mm 5 mps 749 mmHg 92%
    15:00 0°C° 0 mm 4 mps 749 mmHg 92%
    16:00 0°C° 0 mm 4 mps 749 mmHg 93%
    17:00 0°C° 0 mm 4 mps 749 mmHg 93%
    18:00 0°C° 0.1 mm 4 mps 749 mmHg 94%
    19:00 0°C° 0.1 mm 4 mps 749 mmHg 95%
    20:00 0°C° 0.1 mm 4 mps 749 mmHg 96%
    21:00 0°C° 0.2 mm 4 mps 749 mmHg 96%
    22:00 +1°C° 0.2 mm 5 mps 749 mmHg 96%
    23:00 +1°C° 0.2 mm 6 mps 748 mmHg 96%
    Show more